Location: Goettingen
(51.5300°N, 9.9433°E)
Time: 02:30:02
(UTC+02:00)

ISS - Visible Passes

Search period start: 22 July 2017 00:00
Search period end: 01 August 2017 00:00
Orbit: 400 x 408 km, 51.6° (Epoch: 22 July)

Date Brightness Start Highest point End Pass type
(mag) Time Alt. Az. Time Alt. Az. Time Alt. Az.
22 Jul -4.0 01:10:46 55° SW 01:11:20 74° SSE 01:14:36 10° E visible
22 Jul -3.9 02:44:34 10° W 02:47:50 89° NNW 02:51:06 10° E visible
22 Jul -3.4 04:21:05 10° W 04:24:11 40° SSW 04:27:16 10° SE visible
22 Jul -2.2 22:41:02 10° S 22:43:06 16° SE 22:45:09 10° ESE visible
23 Jul -3.9 00:15:52 10° WSW 00:19:04 56° SSE 00:22:17 10° E visible
23 Jul -3.9 01:52:14 10° W 01:55:30 86° N 01:58:47 10° E visible
23 Jul -3.8 03:28:44 10° W 03:31:57 57° SSW 03:35:09 10° ESE visible
23 Jul -3.5 23:23:46 10° SW 23:26:50 40° SSE 23:29:55 10° E visible
24 Jul -4.0 00:59:54 10° W 01:03:10 89° N 01:06:26 10° E visible
24 Jul -4.0 02:36:24 10° W 02:39:40 74° SSW 02:42:55 10° ESE visible
24 Jul -2.7 04:13:06 10° W 04:15:49 24° SSW 04:18:31 10° SSE visible
24 Jul -2.9 22:31:49 10° SSW 22:34:38 27° SSE 22:37:27 10° E visible
25 Jul -4.0 00:07:34 10° WSW 00:10:49 79° S 00:14:06 10° E visible
25 Jul -4.0 01:44:03 10° W 01:47:19 88° SSW 01:50:36 10° E visible
25 Jul -3.3 03:20:37 10° W 03:23:38 35° SSW 03:26:39 10° SE visible
25 Jul -3.9 23:15:17 10° WSW 23:18:31 62° SSE 23:21:45 10° E visible
26 Jul -3.9 00:51:42 10° W 00:54:58 86° N 00:56:42 25° E visible
26 Jul -1.9 02:28:11 10° W 02:29:14 18° W 02:29:14 18° W visible
26 Jul -3.6 22:23:05 10° SW 22:26:13 45° SSE 22:29:21 10° E visible
26 Jul -3.9 23:59:19 10° W 00:02:35 87° N 00:05:15 15° E visible
27 Jul -2.8 01:35:49 10° W 01:37:51 34° W 01:37:51 34° W visible
27 Jul -4.0 23:06:57 10° WSW 23:10:12 84° S 23:13:28 10° E visible
28 Jul -4.0 00:43:26 10° W 00:46:42 84° S 00:46:50 80° SE visible
28 Jul -3.9 22:14:36 10° WSW 22:17:50 68° SSE 22:21:05 10° E visible
28 Jul -3.9 23:51:02 10° W 23:54:19 87° N 23:55:56 27° E visible
29 Jul -1.7 01:27:33 10° W 01:28:33 18° W 01:28:33 18° W visible
29 Jul -3.9 22:58:37 10° W 23:01:54 86° N 23:05:06 10° E visible
30 Jul -3.4 00:35:07 10° W 00:37:42 48° WSW 00:37:42 48° WSW visible
30 Jul -3.9 22:06:12 10° W 22:09:28 88° S 22:12:44 10° E visible
30 Jul -4.0 23:42:42 10° W 23:45:58 79° SSW 23:46:54 43° ESE visible
31 Jul -1.1 01:19:20 10° W 01:19:30 11° W 01:19:30 11° W visible
31 Jul -3.9 22:50:16 10° W 22:53:32 89° NE 22:56:06 15° E visible
